Lewiston, WA

4:43 PM PDT on May 23, 2018 (GMT -0700)
Lewiston-Nez Perce County

Weather History for KLWS - April, 2014

Change the Weather History Date:

Friday, April 11, 2014

  Actual Average Record
Temperature  
Mean Temperature 54 °F 50 °F  
Max Temperature 70 °F 61 °F 83 °F (1913)
Min Temperature 38 °F 40 °F 27 °F (1997)
Degree Days  
Heating Degree Days 11 15  
Month to date heating degree days 142 171  
Since 1 July heating degree days 4900 4638  
Cooling Degree Days 0 0  
Month to date cooling degree days 0 0  
Year to date cooling degree days 0 0  
Growing Degree Days 4 (Base 50)    
Moisture  
Dew Point 29 °F    
Average Humidity 48    
Maximum Humidity 76    
Minimum Humidity 20    
Precipitation  
Precipitation 0.00 in 0.04 in 0.57 in (1941)
Month to date precipitation 0.20 0.44  
Year to date precipitation 3.97 3.45  
Snow  
Snow 0.00 in 0.00 in T in (1971)
Month to date snowfall 0.0 0.0  
Since 1 July snowfall 16.5 10.5  
Snow Depth 0.00 in    
Sea Level Pressure  
Sea Level Pressure 29.95 in    
Wind  
Wind Speed 7 mph (NW)    
Max Wind Speed 30 mph    
Max Gust Speed 39 mph    
Visibility 10 miles    
Events      
T = Trace of Precipitation, MM = Missing Value Source: NWS Daily Summary

Daily Weather History Graph

Daily Weather History Graph

Search for Another Location

Airport or City:

Astronomy

Apr. 11, 2014 Rise Set
Actual Time 6:08 AM PDT 7:30 PM PDT
Civil Twilight 5:37 AM PDT 8:01 PM PDT
Nautical Twilight 4:59 AM PDT 8:39 PM PDT
Astronomical Twilight 4:19 AM PDT 9:20 PM PDT
Moon 4:04 PM PDT (4/11) 4:18 AM PDT (4/11)
Length of Visible Light 14h 24m
Length of Day
13h 22m
Waxing Gibbous, 87% of the Moon is Illuminated
Apr 11
Waxing Gibbous
Apr 15
Full
Apr 22
Last Quarter
Apr 28
New
May 6
First Quarter

Hourly Weather History & Observations

Time (PDT) Temp. Windchill Dew Point Humidity Pressure Visibility Wind Dir Wind Speed Gust Speed Precip Events Conditions
12:56 AM 48.9 °F - 28.9 °F 46% 30.04 in 10.0 mi Calm Calm - N/A   Clear
1:56 AM 45.0 °F 43.5 °F 28.9 °F 53% 30.04 in 10.0 mi NNW 3.5 mph - N/A   Clear
2:56 AM 44.1 °F - 28.9 °F 55% 30.03 in 10.0 mi Calm Calm - N/A   Clear
3:56 AM 43.0 °F 41.3 °F 28.0 °F 56% 30.02 in 10.0 mi SSE 3.5 mph - N/A   Clear
4:56 AM 39.9 °F 37.8 °F 28.9 °F 65% 30.02 in 10.0 mi ESE 3.5 mph - N/A   Clear
5:56 AM 42.1 °F 40.2 °F 30.0 °F 62% 30.04 in 10.0 mi ENE 3.5 mph - N/A   Clear
6:56 AM 39.9 °F 36.7 °F 32.0 °F 73% 30.04 in 10.0 mi ESE 4.6 mph - N/A   Clear
7:56 AM 45.0 °F 41.8 °F 33.1 °F 63% 30.04 in 10.0 mi ENE 5.8 mph - N/A   Clear
8:56 AM 48.0 °F - 34.0 °F 58% 30.02 in 10.0 mi North 4.6 mph - N/A   Clear
9:56 AM 52.0 °F - 34.0 °F 50% 30.01 in 10.0 mi Variable 4.6 mph - N/A   Clear
10:56 AM 57.0 °F - 33.1 °F 40% 30.00 in 10.0 mi Calm Calm - N/A   Clear
11:56 AM 62.1 °F - 34.0 °F 35% 29.98 in 10.0 mi Calm Calm - N/A   Clear
12:56 PM 63.0 °F - 32.0 °F 31% 29.94 in 10.0 mi West 4.6 mph - N/A   Clear
1:56 PM 66.9 °F - 30.9 °F 26% 29.92 in 10.0 mi NNE 4.6 mph - N/A   Clear
2:56 PM 69.1 °F - 28.9 °F 22% 29.88 in 10.0 mi NNW 8.1 mph - N/A   Clear
3:56 PM 68.0 °F - 26.1 °F 21% 29.86 in 10.0 mi NW 18.4 mph 26.5 mph N/A   Clear
4:56 PM 66.0 °F - 25.0 °F 21% 29.83 in 10.0 mi WNW 23.0 mph 32.2 mph N/A   Clear
5:56 PM 64.9 °F - 25.0 °F 22% 29.85 in 10.0 mi WNW 19.6 mph 31.1 mph N/A   Clear
6:56 PM 63.0 °F - 27.0 °F 26% 29.86 in 10.0 mi WNW 8.1 mph 20.7 mph N/A   Clear
7:56 PM 61.0 °F - 27.0 °F 27% 29.86 in 10.0 mi WSW 12.7 mph - N/A   Clear
8:56 PM 57.9 °F - 28.9 °F 33% 29.87 in 10.0 mi WSW 9.2 mph - N/A   Clear
9:56 PM 55.9 °F - 28.0 °F 34% 29.89 in 10.0 mi West 5.8 mph - N/A   Clear
10:56 PM 55.0 °F - 27.0 °F 34% 29.89 in 10.0 mi WNW 4.6 mph - N/A   Clear
11:56 PM 48.9 °F - 27.0 °F 43% 29.89 in 10.0 mi West 8.1 mph - N/A   Clear